Radiation Dose at Monitoring Post of Fukushima Daini Nuclear Power Station
Date,Time,MP-1(microSv/h),MP-2(microSv/h),MP-3(microSv/h),MP-4(microSv/h),MP-5(microSv/h),MP-6(microSv/h),MP-7(microSv/h),Wind Direction,Wind Velocity(m/s),Rain
2015/10/01,00:00,0.490,0.283,0.507,0.466,0.456,0.228,0.199,north-northwest,1.7,No
2015/10/01,00:10,0.487,0.281,0.508,0.469,0.452,0.227,0.199,north,1.6,No
2015/10/01,00:20,0.490,0.282,0.508,0.465,0.454,0.228,0.199,north,0.8,No
2015/10/01,00:30,0.486,0.283,0.508,0.470,0.454,0.227,0.198,north,1.1,No
2015/10/01,00:40,0.490,0.283,0.508,0.464,0.453,0.228,0.199,north,1.4,No
2015/10/01,00:50,0.485,0.282,0.507,0.470,0.454,0.227,0.199,north,1.4,No
2015/10/01,01:00,0.489,0.281,0.509,0.465,0.452,0.228,0.198,north-northeast,2.2,No
2015/10/01,01:10,0.485,0.284,0.508,0.469,0.454,0.228,0.199,north-northeast,1.2,No
2015/10/01,01:20,0.490,0.282,0.509,0.466,0.451,0.228,0.199,northeast,1.3,No
2015/10/01,01:30,0.485,0.284,0.505,0.469,0.457,0.229,0.199,south-southeast,1.0,No
2015/10/01,01:40,0.488,0.281,0.510,0.468,0.453,0.228,0.198,southwest,0.9,No
2015/10/01,01:50,0.487,0.284,0.507,0.467,0.455,0.227,0.199,west-northwest,1.5,No
2015/10/01,02:00,0.490,0.282,0.509,0.467,0.452,0.228,0.199,west-southwest,1.4,No
2015/10/01,02:10,0.487,0.284,0.505,0.465,0.453,0.228,0.199,southwest,1.9,No
2015/10/01,02:20,0.489,0.282,0.511,0.468,0.453,0.227,0.200,south-southwest,2.1,No
2015/10/01,02:30,0.488,0.281,0.506,0.467,0.452,0.228,0.198,south-southwest,1.6,No
2015/10/01,02:40,0.487,0.282,0.509,0.469,0.455,0.228,0.199,south-southwest,1.4,No
2015/10/01,02:50,0.491,0.282,0.506,0.466,0.451,0.228,0.199,south,1.1,No
2015/10/01,03:00,0.486,0.283,0.511,0.469,0.455,0.228,0.199,south,1.2,No
2015/10/01,03:10,0.488,0.282,0.506,0.465,0.450,0.229,0.198,south-southeast,0.9,No
2015/10/01,03:20,0.486,0.283,0.509,0.470,0.455,0.228,0.199,northeast,1.0,No
2015/10/01,03:30,0.490,0.282,0.508,0.467,0.452,0.229,0.199,north-northeast,0.8,No
2015/10/01,03:40,0.487,0.283,0.507,0.467,0.453,0.227,0.198,-,CALM,No
2015/10/01,03:50,0.488,0.282,0.509,0.468,0.453,0.227,0.199,southeast,1.0,No
2015/10/01,04:00,0.486,0.281,0.507,0.468,0.453,0.229,0.199,east-southeast,1.1,No
2015/10/01,04:10,0.489,0.283,0.512,0.468,0.454,0.227,0.198,southeast,0.8,No
2015/10/01,04:20,0.487,0.283,0.508,0.465,0.452,0.229,0.199,south-southeast,0.6,No
2015/10/01,04:30,0.487,0.281,0.511,0.469,0.454,0.228,0.199,south-southwest,1.0,No
2015/10/01,04:40,0.488,0.283,0.507,0.466,0.452,0.228,0.199,west,0.7,No
2015/10/01,04:50,0.487,0.281,0.509,0.467,0.453,0.227,0.199,southwest,1.0,No
2015/10/01,05:00,0.491,0.283,0.507,0.467,0.453,0.228,0.199,west-northwest,0.9,No
2015/10/01,05:10,0.487,0.284,0.507,0.466,0.450,0.227,0.197,west-southwest,1.2,No
2015/10/01,05:20,0.489,0.282,0.511,0.469,0.454,0.228,0.199,southwest,1.9,No
2015/10/01,05:30,0.487,0.284,0.507,0.466,0.451,0.228,0.199,south-southwest,2.5,No
2015/10/01,05:40,0.488,0.282,0.509,0.467,0.453,0.227,0.199,south,2.1,No
2015/10/01,05:50,0.489,0.283,0.507,0.468,0.451,0.228,0.198,south,2.8,No
2015/10/01,06:00,0.487,0.284,0.508,0.465,0.452,0.228,0.199,south,2.8,No
2015/10/01,06:10,0.490,0.281,0.508,0.467,0.451,0.227,0.198,south,2.9,No
2015/10/01,06:20,0.487,0.283,0.507,0.466,0.450,0.228,0.198,south-southwest,2.9,No
2015/10/01,06:30,0.488,0.283,0.509,0.468,0.453,0.228,0.198,south-southwest,2.2,No
2015/10/01,06:40,0.487,0.283,0.507,0.465,0.450,0.227,0.199,south-southwest,3.1,No
2015/10/01,06:50,0.486,0.283,0.511,0.468,0.454,0.228,0.200,south-southwest,3.8,No
2015/10/01,07:00,0.486,0.281,0.506,0.466,0.449,0.227,0.199,south-southwest,3.6,No
2015/10/01,07:10,0.487,0.282,0.509,0.466,0.456,0.227,0.198,south-southwest,3.4,No
2015/10/01,07:20,0.486,0.282,0.506,0.466,0.450,0.227,0.199,south-southwest,3.9,No
2015/10/01,07:30,0.486,0.283,0.510,0.466,0.456,0.227,0.198,south-southwest,3.9,No
2015/10/01,07:40,0.487,0.282,0.505,0.465,0.448,0.229,0.199,south,4.2,No
2015/10/01,07:50,0.487,0.281,0.507,0.465,0.453,0.227,0.199,south-southwest,5.3,No
2015/10/01,08:00,0.487,0.281,0.506,0.463,0.450,0.228,0.198,south,4.6,No
2015/10/01,08:10,0.487,0.283,0.509,0.469,0.455,0.228,0.196,south,3.6,No
2015/10/01,08:20,0.486,0.280,0.504,0.464,0.452,0.228,0.196,south-southwest,3.1,No
2015/10/01,08:30,0.488,0.282,0.511,0.462,0.451,0.227,0.198,south,3.1,No
2015/10/01,08:40,0.483,0.283,0.504,0.467,0.453,0.228,0.198,south,3.7,No
2015/10/01,08:50,0.490,0.280,0.510,0.463,0.447,0.227,0.198,south-southwest,3.7,No
2015/10/01,09:00,0.482,0.282,0.507,0.460,0.452,0.226,0.197,south,3.9,No
2015/10/01,09:10,0.484,0.282,0.502,0.466,0.453,0.228,0.197,south,4.0,No
2015/10/01,09:20,0.487,0.280,0.508,0.464,0.448,0.227,0.196,south-southeast,4.2,No
2015/10/01,09:30,0.483,0.278,0.502,0.462,0.446,0.228,0.198,south-southeast,5.6,No
2015/10/01,09:40,0.481,0.278,0.508,0.461,0.453,0.227,0.200,south,5.8,No
2015/10/01,09:50,0.479,0.282,0.508,0.459,0.453,0.227,0.199,south,5.9,No
2015/10/01,10:00,0.485,0.283,0.504,0.464,0.451,0.227,0.197,south-southeast,5.7,No
2015/10/01,10:10,0.487,0.281,0.510,0.470,0.448,0.227,0.197,south-southeast,6.5,No
2015/10/01,10:20,0.485,0.281,0.507,0.466,0.456,0.226,0.200,south,6.9,No
2015/10/01,10:30,0.480,0.282,0.504,0.463,0.455,0.227,0.199,south,8.1,No
2015/10/01,10:40,0.483,0.285,0.511,0.461,0.451,0.226,0.199,south,7.2,No
2015/10/01,10:50,0.488,0.281,0.507,0.468,0.448,0.228,0.197,south,8.1,No
2015/10/01,11:00,0.490,0.280,0.503,0.469,0.456,0.228,0.199,south-southeast,7.8,No
2015/10/01,11:10,0.486,0.279,0.500,0.465,0.454,0.229,0.199,south,7.5,No
2015/10/01,11:20,0.483,0.285,0.509,0.463,0.451,0.227,0.199,south-southeast,7.9,No
2015/10/01,11:30,0.480,0.283,0.503,0.462,0.447,0.228,0.198,south,8.1,No
2015/10/01,11:40,0.483,0.283,0.504,0.464,0.448,0.229,0.197,south,9.3,No
2015/10/01,11:50,0.488,0.280,0.502,0.470,0.454,0.229,0.197,south,9.5,No
2015/10/01,12:00,0.490,0.280,0.501,0.468,0.455,0.228,0.199,south,9.7,No
2015/10/01,12:10,0.486,0.282,0.503,0.466,0.453,0.228,0.199,south,9.2,No
2015/10/01,12:20,0.483,0.284,0.509,0.464,0.451,0.227,0.199,south,9.2,No
2015/10/01,12:30,0.487,0.283,0.508,0.463,0.449,0.229,0.198,south,9.5,No
2015/10/01,12:40,0.493,0.282,0.508,0.462,0.448,0.230,0.198,south,8.9,No
2015/10/01,12:50,0.487,0.281,0.507,0.463,0.449,0.229,0.199,south-southwest,10.1,No
2015/10/01,13:00,0.485,0.280,0.504,0.464,0.455,0.226,0.198,south,9.8,No
2015/10/01,13:10,0.482,0.281,0.503,0.474,0.454,0.227,0.200,south-southwest,10.1,No
2015/10/01,13:20,0.490,0.283,0.508,0.470,0.451,0.228,0.200,south-southwest,9.0,No
2015/10/01,13:30,0.490,0.285,0.509,0.470,0.450,0.229,0.200,south-southwest,9.5,No
2015/10/01,13:40,0.487,0.284,0.507,0.465,0.454,0.228,0.197,south,10.2,No
2015/10/01,13:50,0.485,0.281,0.505,0.470,0.457,0.228,0.198,south,9.2,No
2015/10/01,14:00,0.490,0.285,0.513,0.470,0.450,0.229,0.200,south,10.3,No
2015/10/01,14:10,0.489,0.283,0.512,0.466,0.452,0.229,0.198,south,8.9,No
2015/10/01,14:20,0.485,0.282,0.507,0.470,0.459,0.227,0.201,south,9.1,No
2015/10/01,14:30,0.491,0.284,0.514,0.473,0.455,0.227,0.199,south,8.7,No
2015/10/01,14:40,0.491,0.284,0.510,0.467,0.452,0.229,0.198,south,8.7,No
2015/10/01,14:50,0.483,0.283,0.506,0.470,0.457,0.227,0.200,south,8.3,No
2015/10/01,15:00,0.493,0.284,0.512,0.472,0.454,0.229,0.200,south,7.6,No
2015/10/01,15:10,0.490,0.285,0.510,0.466,0.452,0.229,0.199,south,8.9,Yes
2015/10/01,15:20,0.484,0.280,0.506,0.471,0.457,0.227,0.200,south,10.3,Yes
2015/10/01,15:30,0.493,0.284,0.515,0.471,0.453,0.229,0.200,south,10.4,Yes
2015/10/01,15:40,0.490,0.284,0.509,0.465,0.456,0.228,0.199,south-southwest,10.7,Yes
2015/10/01,15:50,0.486,0.281,0.508,0.469,0.459,0.228,0.200,south,10.1,Yes
2015/10/01,16:00,0.493,0.286,0.513,0.470,0.452,0.229,0.200,south-southwest,12.4,Yes
2015/10/01,16:10,0.488,0.284,0.508,0.468,0.459,0.229,0.201,south-southwest,11.7,Yes
2015/10/01,16:20,0.491,0.286,0.514,0.473,0.453,0.232,0.201,south-southwest,11.3,Yes
2015/10/01,16:30,0.492,0.287,0.512,0.468,0.455,0.230,0.202,south-southwest,9.9,Yes
2015/10/01,16:40,0.487,0.286,0.512,0.475,0.458,0.231,0.201,south-southwest,10.3,Yes
2015/10/01,16:50,0.494,0.286,0.513,0.471,0.454,0.230,0.202,south-southwest,9.2,Yes
2015/10/01,17:00,0.488,0.286,0.509,0.470,0.458,0.231,0.204,south-southwest,9.5,Yes
2015/10/01,17:10,0.493,0.288,0.513,0.473,0.452,0.235,0.203,south-southwest,12.4,Yes
2015/10/01,17:20,0.492,0.285,0.509,0.469,0.459,0.233,0.204,south,10.7,Yes
2015/10/01,17:30,0.492,0.287,0.515,0.473,0.453,0.235,0.204,south-southwest,13.3,Yes
2015/10/01,17:40,0.493,0.287,0.510,0.468,0.458,0.234,0.206,south-southwest,13.5,Yes
2015/10/01,17:50,0.489,0.288,0.511,0.473,0.454,0.234,0.203,south-southwest,13.4,Yes
2015/10/01,18:00,0.492,0.288,0.511,0.468,0.458,0.236,0.206,south-southwest,16.0,Yes
2015/10/01,18:10,0.488,0.287,0.512,0.472,0.453,0.235,0.204,south-southwest,17.5,Yes
2015/10/01,18:20,0.492,0.288,0.511,0.469,0.454,0.236,0.205,south-southwest,16.6,Yes
2015/10/01,18:30,0.488,0.287,0.508,0.472,0.453,0.234,0.203,south-southwest,12.6,Yes
2015/10/01,18:40,0.490,0.286,0.510,0.466,0.454,0.234,0.204,south-southwest,11.3,Yes
2015/10/01,18:50,0.489,0.286,0.506,0.469,0.452,0.232,0.202,south-southwest,12.8,Yes
2015/10/01,19:00,0.487,0.286,0.505,0.464,0.451,0.233,0.203,south-southwest,11.0,Yes
2015/10/01,19:10,0.488,0.284,0.504,0.466,0.454,0.231,0.201,south-southwest,13.9,Yes
2015/10/01,19:20,0.483,0.284,0.506,0.465,0.451,0.233,0.200,south-southwest,12.3,Yes
2015/10/01,19:30,0.487,0.283,0.503,0.466,0.451,0.232,0.200,south-southwest,14.4,Yes
2015/10/01,19:40,0.483,0.283,0.505,0.463,0.451,0.231,0.200,south-southwest,11.2,Yes
2015/10/01,19:50,0.484,0.283,0.500,0.465,0.451,0.231,0.200,south-southwest,11.1,Yes
2015/10/01,20:00,0.480,0.283,0.503,0.461,0.448,0.231,0.198,south-southwest,12.2,Yes
2015/10/01,20:10,0.484,0.281,0.498,0.459,0.451,0.229,0.199,south-southwest,11.0,Yes
2015/10/01,20:20,0.479,0.282,0.501,0.460,0.448,0.230,0.198,south-southwest,9.4,Yes
2015/10/01,20:30,0.483,0.281,0.497,0.458,0.451,0.230,0.199,south-southwest,10.4,Yes
2015/10/01,20:40,0.479,0.282,0.501,0.462,0.447,0.229,0.196,south-southwest,10.0,Yes
2015/10/01,20:50,0.482,0.280,0.497,0.457,0.451,0.228,0.198,south,9.2,Yes
2015/10/01,21:00,0.477,0.281,0.498,0.459,0.444,0.228,0.197,south-southwest,11.1,Yes
2015/10/01,21:10,0.479,0.280,0.496,0.454,0.450,0.228,0.196,south-southwest,10.5,Yes
2015/10/01,21:20,0.480,0.281,0.494,0.460,0.444,0.227,0.196,south-southwest,9.9,Yes
2015/10/01,21:30,0.474,0.280,0.496,0.454,0.451,0.227,0.195,south-southwest,13.5,Yes
2015/10/01,21:40,0.479,0.278,0.492,0.459,0.446,0.226,0.195,south,10.6,Yes
2015/10/01,21:50,0.475,0.279,0.495,0.454,0.445,0.226,0.195,south-southwest,12.8,Yes
2015/10/01,22:00,0.478,0.278,0.491,0.454,0.446,0.226,0.195,south-southwest,14.9,Yes
2015/10/01,22:10,0.475,0.279,0.496,0.456,0.443,0.224,0.194,south,13.1,Yes
2015/10/01,22:20,0.475,0.277,0.492,0.452,0.447,0.225,0.195,south,14.0,No
2015/10/01,22:30,0.479,0.278,0.491,0.457,0.442,0.224,0.194,south,13.0,Yes
2015/10/01,22:40,0.472,0.276,0.494,0.451,0.449,0.222,0.194,south-southwest,13.5,Yes
2015/10/01,22:50,0.477,0.276,0.491,0.454,0.445,0.224,0.193,south-southwest,14.8,No
2015/10/01,23:00,0.474,0.276,0.495,0.455,0.443,0.223,0.192,south-southwest,13.6,No
2015/10/01,23:10,0.473,0.274,0.491,0.452,0.447,0.224,0.193,south-southwest,12.6,No
2015/10/01,23:20,0.479,0.276,0.491,0.456,0.443,0.223,0.192,south-southwest,14.4,No
2015/10/01,23:30,0.470,0.275,0.494,0.451,0.448,0.223,0.192,south,12.4,No
2015/10/01,23:40,0.480,0.276,0.488,0.454,0.445,0.224,0.191,south,14.0,No
2015/10/01,23:50,0.478,0.276,0.494,0.456,0.446,0.221,0.193,south,13.8,No
